Regional Weather Roundup
Issued by NWS Sioux Falls, SD

Home | Current Version | Previous Version | Text Only | Print | Product List | Glossary On
Versions: 1 2 3 4 5 6 7 8 9 10 11 12 13 14 15 16 17 18 19 20 21 22 23 24 25 26 27 28 29 30 31 32 33 34 35 36 37 38 39 40 41 42 43 44 45 46 47 48 49 50
000
ASUS43 KFSD 211010
RWRFSD

WEATHER ROUNDUP FOR SE SOUTH DAKOTA/SW MINNESOTA/NW IOWA
NATIONAL WEATHER SERVICE SIOUX FALLS SD
400 AM CST SUN DEC 21 2014

NOTE: "FAIR" INDICATES FEW OR NO CLOUDS BELOW 12,000 FEET WITH NO
SIGNIFICANT WEATHER AND OR OBSTRUCTIONS TO VISIBILITY.


SDZ038>040-050-052>070-211100-
SOUTHEAST SOUTH DAKOTA

CITY           SKY/WX    TMP DP  RH WIND       PRES   REMARKS
CHAMBERLAIN    CLOUDY    25  24  96 NE5       29.78F WCI  19
HURON          CLOUDY    31  30  96 S9        29.81F FOG     WCI  23
MADISON        FOG       28  28 100 MISG      29.81F VSB 1/4
MITCHELL       CLOUDY    32  31  96 S9        29.82F FOG     WCI  24
SIOUX FALLS    FOG       31  31 100 S12       29.86F VSB 1/2 WCI  22
WINNER         CLOUDY    40  26  57 S3        29.75F
YANKTON        CLOUDY    34  30  86 S13       29.87F WCI  25
$$

MNZ071-072-080-081-089-090-097-098-211100-
SOUTHWEST MINNESOTA

CITY           SKY/WX    TMP DP  RH WIND       PRES   REMARKS
FAIRMONT       CLOUDY    32  28  86 S12       29.93F VSB 1/2 WCI  23
JACKSON        CLOUDY    32  32 100 S12       29.91F FOG     WCI  23
LUVERNE        FOG       32  32 100 S9        29.87F VSB 1/4 WCI  24
MARSHALL       CLOUDY    30  27  86 S14       29.86F WCI  20
MONTEVIDEO     CLOUDY    30  30 100 SW9       29.89F FOG     WCI  22
PIPESTONE      SNOW      30  30 100 S5        29.83F VSB 1/4 WCI  25
REDWOOD FALLS  CLOUDY    32  30  92 S15       29.90F WCI  22
TRACY          CLOUDY    32  31  96 S8        29.87F FOG     WCI  25
WINDOM         CLOUDY    30  30 100 S9        29.89F FOG     WCI  22
WORTHINGTON    CLOUDY    30  28  93 S8        29.89F VSB 1/4 WCI  23
$$

IAZ001>003-012>014-020>022-031-032-NEZ013-014-SDZ071-211100-
NORTHWEST IOWA

CITY           SKY/WX    TMP DP  RH WIND       PRES   REMARKS
CHEROKEE       CLOUDY    33  33 100 S8        29.91F FOG     WCI  25
DENISON        CLOUDY    37  37 100 S14       29.92F FOG
ESTHERVILLE    FOG       31  31 100 S10       29.91F VSB 1/4 WCI  22
LE MARS        MIX PCPN  34  34 100 SE10      29.89F VSB 1/2 WCI  26
ORANGE CITY    FOG       34  32  93 S7        29.87F VSB<1/4 WCI  28
SHELDON        FOG       32  32 100 S12       29.87F VSB 1/2 WCI  23
SIOUX CITY     FOG       34  33  96 SE7       29.90F VSB 1/2 WCI  28
SPENCER        FOG       32  31  96 S8        29.91F VSB 1/2 WCI  25
STORM LAKE     FOG       32  32 100 S10       29.92F VSB<1/4 WCI  24
$$

ABBREVIATIONS USED IN REMARKS
   TC - TEMPERATURE IN CELSIUS
  WCI - WIND CHILL INDEX
   HX - HEAT INDEX
  VSB - VISIBILITY




USA.gov is the U.S. government's official web portal to all federal, state and local government web resources and services.